AE5HO Weather Reports


time (UTC)temp
C
wind
direction
speed
KPH
gust
KPH
rain 1hr
cm
rain 24hr
cm
rain mn
cm
humidity
%
barometer
mb
20260505200539 31 286 3.2 4.8 0.00 0.00 0.00 61 1004.8
20260505200036 31 246 4.8 9.7 0.00 0.00 0.00 59 1004.9
20260505195532 31 240 0.0 11.3 0.00 0.00 0.00 61 1004.7
20260505195030 31 285 0.0 8.0 0.00 0.00 0.00 62 1004.5
20260505194527 30 294 1.6 6.4 0.00 0.00 0.00 63 1004.8
20260505194022 30 270 0.0 12.9 0.00 0.00 0.00 62 1004.8
20260505193520 30 306 1.6 8.0 0.00 0.00 0.00 62 1004.7
20260505193017 30 295 0.0 9.7 0.00 0.00 0.00 63 1004.9
20260505192516 30 270 0.0 9.7 0.00 0.00 0.00 64 1005.0
20260505192013 30 236 3.2 4.8 0.00 0.00 0.00 64 1004.8
20260505191511 30 270 4.8 12.9 0.00 0.00 0.00 64 1005.0
20260505191008 30 253 3.2 8.0 0.00 0.00 0.00 66 1004.8
20260505190503 29 262 1.6 4.8 0.00 0.00 0.00 66 1004.6
20260505185958 29 201 3.2 4.8 0.00 0.00 0.00 66 1004.7
20260505185456 29 255 8.0 11.3 0.00 0.00 0.00 67 1004.8
20260505184952 29 240 0.0 11.3 0.00 0.00 0.00 67 1004.8
20260505184449 29 270 0.0 3.2 0.00 0.00 0.00 68 1004.8
20260505183945 28 265 3.2 8.0 0.00 0.00 0.00 68 1005.0
20260505183442 28 270 0.0 11.3 0.00 0.00 0.00 69 1005.0
20260505182939 28 262 4.8 8.0 0.00 0.00 0.00 69 1005.3
20260505182436 28 216 4.8 8.0 0.00 0.00 0.00 69 1005.1
20260505181932 28 201 3.2 12.9 0.00 0.00 0.00 69 1005.0
20260505181430 28 277 4.8 4.8 0.00 0.00 0.00 69 1005.0
20260505180927 28 262 4.8 14.5 0.00 0.00 0.00 68 1005.3
20260505180423 28 257 6.4 20.9 0.00 0.00 0.00 68 1005.0
20260505175919 28 270 3.2 9.7 0.00 0.00 0.00 69 1005.2
20260505175416 28 217 0.0 4.8 0.00 0.00 0.00 69 1005.1
20260505174912 28 270 8.0 16.1 0.00 0.00 0.00 68 1005.0
20260505174410 28 278 1.6 8.0 0.00 0.00 0.00 68 1004.9
20260505173906 28 225 3.2 6.4 0.00 0.00 0.00 67 1005.2
20260505173402 28 268 9.7 12.9 0.00 0.00 0.00 69 1005.0
20260505172859 28 194 0.0 14.5 0.00 0.00 0.00 71 1005.0
20260505172357 27 270 1.6 11.3 0.00 0.00 0.00 70 1005.0
20260505171857 28 262 4.8 14.5 0.00 0.00 0.00 70 1005.0
20260505171353 28 277 1.6 4.8 0.00 0.00 0.00 70 1005.2
20260505170850 28 270 0.0 4.8 0.00 0.00 0.00 72 1005.0
20260505170347 28 233 3.2 6.4 0.00 0.00 0.00 72 1005.3
20260505165842 27 276 0.0 8.0 0.00 0.00 0.00 72 1005.0
20260505165338 27 263 4.8 9.7 0.00 0.00 0.00 72 1005.3
20260505164834 27 270 4.8 9.7 0.00 0.00 0.00 72 1005.2
20260505164331 27 258 4.8 4.8 0.00 0.00 0.00 73 1005.0
20260505163829 27 265 3.2 8.0 0.00 0.00 0.00 73 1005.1
20260505163328 26 109 3.2 11.3 0.00 0.00 0.00 73 1004.9
20260505162826 26 243 8.0 9.7 0.00 0.00 0.00 74 1005.0
20260505162322 26 210 4.8 11.3 0.00 0.00 0.00 74 1005.0
20260505161819 27 187 3.2 6.4 0.00 0.00 0.00 75 1005.1
20260505161316 26 83 1.6 8.0 0.00 0.00 0.00 76 1004.9
20260505160814 26 243 0.0 8.0 0.00 0.00 0.00 77 1005.2
20260505160312 26 293 3.2 6.4 0.00 0.00 0.00 77 1004.9
20260505153250 25 273 4.8 14.5 0.00 0.00 0.00 79 1005.0
20260505152747 25 270 3.2 6.4 0.00 0.00 0.00 79 1004.9
20260505152244 25 262 4.8 6.4 0.00 0.00 0.00 79 1004.9
20260505151744 25 246 3.2 8.0 0.00 0.00 0.00 79 1005.0
20260505151242 25 263 1.6 6.4 0.00 0.00 0.00 80 1004.8
20260505150738 25 198 6.4 6.4 0.00 0.00 0.00 80 1004.9
20260505150236 24 240 3.2 6.4 0.00 0.00 0.00 81 1005.1
20260505140206 22 236 4.8 9.7 0.00 0.00 0.00 85 1004.6
20260505130130 21 254 8.0 8.0 0.00 0.00 0.00 88 1004.5
20260505124619 21 198 1.6 6.4 0.00 0.00 0.00 88 1004.3
20260505124115 21 202 4.8 16.1 0.00 0.00 0.00 88 1004.4
20260505123612 21 175 0.0 6.4 0.00 0.00 0.00 88 1004.5
20260505123108 21 279 0.0 3.2 0.00 0.00 0.00 88 1004.1
20260505122605 21 168 3.2 8.0 0.00 0.00 0.00 88 1004.2
20260505122102 21 101 3.2 8.0 0.00 0.00 0.00 88 1004.1
20260505121559 21 219 4.8 6.4 0.00 0.00 0.00 88 1004.1
20260505121056 21 223 8.0 8.0 0.00 0.00 0.00 89 1004.1
20260505120552 21 83 1.6 4.8 0.00 0.00 0.00 89 1003.9
20260505120048 21 255 4.8 9.7 0.00 0.00 0.00 89 1004.0
20260505115542 21 259 3.2 9.7 0.00 0.00 0.00 89 1004.0
20260505115040 21 255 1.6 9.7 0.00 0.00 0.00 89 1004.2
20260505114537 21 191 0.0 8.0 0.00 0.00 0.00 88 1003.9
20260505114033 21 249 4.8 6.4 0.00 0.00 0.00 89 1003.9
20260505113530 21 180 1.6 8.0 0.00 0.00 0.00 88 1004.0
20260505113026 21 186 0.0 4.8 0.00 0.00 0.00 89 1003.9
20260505112522 21 206 0.0 4.8 0.00 0.00 0.00 89 1003.9
20260505112021 21 262 0.0 8.0 0.00 0.00 0.00 89 1003.8
20260505111514 21 270 4.8 8.0 0.00 0.00 0.00 89 1003.8
20260505111010 21 188 0.0 4.8 0.00 0.00 0.00 89 1003.8
20260505110507 21 257 0.0 6.4 0.00 0.00 0.00 88 1004.2
20260505101940 21 217 3.2 9.7 0.00 0.00 0.00 86 1003.7
20260505101438 21 264 1.6 20.9 0.00 0.00 0.00 86 1003.9
20260505100934 21 278 3.2 8.0 0.00 0.00 0.00 86 1004.0
20260505100431 21 239 4.8 8.0 0.00 0.00 0.00 86 1004.2
20260505095927 21 261 4.8 4.8 0.00 0.00 0.00 86 1004.1
20260505095424 21 215 0.0 6.4 0.00 0.00 0.00 86 1004.3
20260505094920 22 270 1.6 8.0 0.00 0.00 0.00 86 1004.1
20260505094418 22 270 0.0 3.2 0.00 0.00 0.00 86 1004.1
20260505093913 22 180 0.0 8.0 0.00 0.00 0.00 85 1003.8
20260505093410 22 180 0.0 8.0 0.00 0.00 0.00 85 1004.0
20260505092908 22 180 0.0 4.8 0.00 0.00 0.00 85 1003.9
20260505092406 22 196 3.2 11.3 0.00 0.00 0.00 85 1004.0
20260505091903 22 261 3.2 9.7 0.00 0.00 0.00 85 1004.0
20260505091400 22 254 4.8 4.8 0.00 0.00 0.00 85 1004.2
20260505090858 22 166 3.2 4.8 0.00 0.00 0.00 85 1004.2
20260505090356 22 233 4.8 11.3 0.00 0.00 0.00 85 1004.3
20260505085853 22 253 3.2 9.7 0.00 0.00 0.00 85 1004.5
20260505085351 22 254 3.2 8.0 0.00 0.00 0.00 85 1004.3
20260505084849 22 174 1.6 4.8 0.00 0.00 0.00 85 1004.3
20260505084347 22 188 0.0 8.0 0.00 0.00 0.00 84 1004.4
20260505083844 22 241 3.2 4.8 0.00 0.00 0.00 84 1004.5
20260505083342 22 270 3.2 8.0 0.00 0.00 0.00 84 1004.7
20260505082838 22 254 1.6 3.2 0.00 0.00 0.00 84 1004.4
20260505082334 22 265 6.4 9.7 0.00 0.00 0.00 83 1004.3
20260505081831 22 243 4.8 8.0 0.00 0.00 0.00 83 1004.4
20260505081327 22 97 0.0 4.8 0.00 0.00 0.00 83 1004.3
20260505080824 22 246 0.0 3.2 0.00 0.00 0.00 83 1004.3
20260505080320 22 175 0.0 12.9 0.00 0.00 0.00 83 1004.4
20260505075815 22 248 3.2 8.0 0.00 0.00 0.00 82 1004.6
20260505075313 22 324 3.2 8.0 0.00 0.00 0.00 82 1004.4
20260505074810 22 206 3.2 11.3 0.00 0.00 0.00 82 1004.5
20260505074307 22 15 3.2 6.4 0.00 0.00 0.00 81 1004.6
20260505073805 22 180 3.2 4.8 0.00 0.00 0.00 81 1004.9
20260505073303 22 180 0.0 4.8 0.00 0.00 0.00 81 1004.9
20260505072759 22 65 3.2 4.8 0.00 0.00 0.00 80 1005.1
20260505072255 22 339 0.0 8.0 0.00 0.00 0.00 80 1004.8
20260505071751 22 234 0.0 6.4 0.00 0.00 0.00 80 1005.1
20260505071248 22 173 0.0 3.2 0.00 0.00 0.00 79 1005.1
20260505070745 22 112 0.0 6.4 0.00 0.00 0.00 79 1005.4
20260505070242 22 71 3.2 8.0 0.00 0.00 0.00 79 1005.6
20260505065737 22 183 4.8 8.0 0.00 0.00 0.00 78 1005.5
20260505065235 22 254 6.4 8.0 0.00 0.00 0.00 78 1005.4
20260505064731 23 194 4.8 8.0 0.00 0.00 0.00 78 1005.8
20260505064229 23 192 3.2 4.8 0.00 0.00 0.00 77 1005.8
20260505063726 23 68 4.8 4.8 0.00 0.00 0.00 77 1005.6
20260505063222 23 253 0.0 9.7 0.00 0.00 0.00 77 1005.7
20260505062719 23 107 0.0 4.8 0.00 0.00 0.00 76 1005.6
20260505062217 23 330 0.0 4.8 0.00 0.00 0.00 76 1005.7
20260505061714 23 68 0.0 3.2 0.00 0.00 0.00 75 1005.8
20260505061212 23 90 1.6 4.8 0.00 0.00 0.00 75 1005.7
20260505060708 23 4 0.0 4.8 0.00 0.00 0.00 75 1005.8
20260505060206 23 75 4.8 6.4 0.00 0.00 0.00 75 1005.8
20260505055701 23 206 0.0 4.8 0.00 0.00 0.00 74 1005.7
20260505055157 23 251 0.0 4.8 0.00 0.00 0.00 74 1005.8
20260505054655 23 66 0.0 12.9 0.00 0.00 0.00 74 1005.6
20260505054153 23 180 0.0 6.4 0.00 0.00 0.00 74 1005.7
20260505053650 23 195 0.0 11.3 0.00 0.00 0.00 74 1005.6
20260505053146 23 32 3.2 6.4 0.00 0.00 0.00 74 1005.7
20260505052644 23 48 0.0 6.4 0.00 0.00 0.00 74 1005.7
20260505052141 23 295 3.2 9.7 0.00 0.00 0.00 74 1005.6
20260505051637 23 90 0.0 4.8 0.00 0.00 0.00 74 1005.7
20260505051136 23 270 0.0 4.8 0.00 0.00 0.00 74 1006.0
20260505050633 23 313 8.0 14.5 0.00 0.00 0.00 73 1005.9
20260505050132 23 218 0.0 12.9 0.00 0.00 0.00 74 1006.0
20260505041601 23 185 1.6 4.8 0.00 0.00 0.00 73 1006.0
20260505041058 23 104 4.8 14.5 0.00 0.00 0.00 72 1006.2
20260505040555 23 96 0.0 11.3 0.00 0.00 0.00 72 1006.0
20260505040053 23 217 0.0 6.4 0.00 0.00 0.00 73 1006.3
20260505035549 23 270 0.0 6.4 0.00 0.00 0.00 72 1006.1
20260505035046 23 258 3.2 6.4 0.00 0.00 0.00 72 1006.2
20260505034542 23 257 0.0 9.7 0.00 0.00 0.00 72 1006.1
20260505034039 23 90 0.0 4.8 0.00 0.00 0.00 73 1005.9
20260505033536 23 283 16.1 16.1 0.00 0.00 0.00 73 1005.9
20260505033034 23 94 4.8 6.4 0.00 0.00 0.00 72 1006.0
20260505032532 23 75 4.8 6.4 0.00 0.00 0.00 72 1005.8
20260505032028 23 15 0.0 4.8 0.00 0.00 0.00 72 1005.9
20260505031525 23 289 3.2 12.9 0.00 0.00 0.00 72 1006.0
20260505031021 23 180 0.0 4.8 0.00 0.00 0.00 72 1006.1
20260505030519 23 0 0.0 4.8 0.00 0.00 0.00 72 1006.0
20260505030015 23 275 3.2 4.8 0.00 0.00 0.00 72 1006.3
20260505025510 23 71 0.0 3.2 0.00 0.00 0.00 71 1006.0
20260505025010 24 90 1.6 6.4 0.00 0.00 0.00 71 1006.2
20260505024506 24 90 0.0 11.3 0.00 0.00 0.00 71 1006.1
20260505024003 24 63 3.2 6.4 0.00 0.00 0.00 71 1006.1
20260505023500 24 60 1.6 8.0 0.00 0.00 0.00 71 1005.9
20260505022958 24 192 1.6 3.2 0.00 0.00 0.00 70 1006.0
20260505022455 24 188 0.0 3.2 0.00 0.00 0.00 70 1006.1
20260505021952 24 195 0.0 4.8 0.00 0.00 0.00 70 1005.7
20260505021448 24 281 4.8 4.8 0.00 0.00 0.00 70 1005.9
20260505020944 24 90 0.0 4.8 0.00 0.00 0.00 70 1005.9
20260505020439 24 114 0.0 3.2 0.00 0.00 0.00 70 1005.8
20260505015937 24 35 1.6 4.8 0.00 0.00 0.00 70 1006.1
20260505015434 24 105 1.6 4.8 0.00 0.00 0.00 69 1006.0
20260505014931 24 180 0.0 4.8 0.00 0.00 0.00 69 1005.7
20260505014428 25 180 1.6 4.8 0.00 0.00 0.00 69 1006.0
20260505013925 25 186 1.6 4.8 0.00 0.00 0.00 69 1006.1
20260505013422 25 184 0.0 11.3 0.00 0.00 0.00 68 1005.8
20260505012920 25 257 1.6 4.8 0.00 0.00 0.00 68 1005.9
20260505012418 25 263 0.0 4.8 0.00 0.00 0.00 68 1005.6
20260505011914 25 245 0.0 6.4 0.00 0.00 0.00 68 1006.1
20260505011410 25 292 0.0 8.0 0.00 0.00 0.00 67 1005.8
20260505010907 25 263 6.4 8.0 0.00 0.00 0.00 67 1006.0
20260505010403 25 196 3.2 8.0 0.00 0.00 0.00 67 1006.3
20260505005859 25 157 3.2 8.0 0.00 0.00 0.00 66 1006.1
20260505005356 25 276 0.0 8.0 0.00 0.00 0.00 66 1006.1
20260505004854 25 85 0.0 6.4 0.00 0.00 0.00 66 1005.7
20260505004349 25 185 4.8 12.9 0.00 0.00 0.00 66 1005.9
20260505003847 25 169 3.2 11.3 0.00 0.00 0.00 66 1005.9
20260505003344 25 321 6.4 8.0 0.00 0.00 0.00 65 1005.7
20260505002840 25 318 4.8 8.0 0.00 0.00 0.00 65 1006.2
20260505002337 26 270 3.2 6.4 0.00 0.00 0.00 65 1005.8
20260505001835 26 121 3.2 12.9 0.00 0.00 0.00 64 1005.9
20260505001332 25 180 0.0 0.0 0.00 0.00 0.00 57 1006.1
20260505000829 25 180 0.0 0.0 0.00 0.00 0.00 58 1006.1
20260505000327 25 180 0.0 0.0 0.00 0.00 0.00 58 1006.4
20260504235823 25 180 0.0 0.0 0.00 0.00 0.00 58 1006.2
20260504235320 25 180 0.0 0.0 0.00 0.00 0.00 58 1006.1
20260504234817 25 180 0.0 0.0 0.00 0.00 0.00 58 1006.4
20260504234315 25 180 0.0 0.0 0.00 0.00 0.00 58 1006.2
20260504233811 25 180 0.0 0.0 0.00 0.00 0.00 58 1006.2
20260504233307 25 180 0.0 0.0 0.00 0.00 0.00 58 1006.5
20260504232804 25 180 0.0 0.0 0.00 0.00 0.00 58 1006.5
20260504232301 25 180 0.0 0.0 0.00 0.00 0.00 58 1006.5
20260504231758 25 180 0.0 0.0 0.00 0.00 0.00 58 1006.4
20260504231254 25 180 0.0 0.0 0.00 0.00 0.00 58 1006.1
20260504230750 25 180 0.0 0.0 0.00 0.00 0.00 58 1006.3
20260504230248 25 180 0.0 0.0 0.00 0.00 0.00 58 1006.2
20260504225747 25 180 0.0 0.0 0.00 0.00 0.00 58 1006.5
20260504225243 25 180 0.0 0.0 0.00 0.00 0.00 58 1006.7
20260504224740 25 180 0.0 0.0 0.00 0.00 0.00 58 1006.8
20260504224237 25 180 0.0 0.0 0.00 0.00 0.00 58 1006.5
20260504223733 25 180 0.0 0.0 0.00 0.00 0.00 58 1006.5
20260504223229 25 180 0.0 0.0 0.00 0.00 0.00 58 1006.5
20260504222727 25 180 0.0 0.0 0.00 0.00 0.00 58 1006.7
20260504222223 25 180 0.0 0.0 0.00 0.00 0.00 58 1006.5
20260504221721 25 180 0.0 0.0 0.00 0.00 0.00 58 1006.6
20260504221218 25 180 0.0 0.0 0.00 0.00 0.00 58 1006.6
20260504220714 25 180 0.0 0.0 0.00 0.00 0.00 58 1006.7
20260504220212 25 180 0.0 0.0 0.00 0.00 0.00 58 1006.5
20260504215708 25 180 0.0 0.0 0.00 0.00 0.00 58 1006.7
20260504215206 25 180 0.0 0.0 0.00 0.00 0.00 58 1007.1
20260504214701 25 180 0.0 0.0 0.00 0.00 0.00 58 1006.9
20260504214158 25 180 0.0 0.0 0.00 0.00 0.00 58 1007.2
20260504213654 25 180 0.0 0.0 0.00 0.00 0.00 58 1007.5
20260504213151 25 180 0.0 0.0 0.00 0.00 0.00 58 1007.3
20260504212647 25 180 0.0 0.0 0.00 0.00 0.00 58 1007.6
20260504212144 25 180 0.0 0.0 0.00 0.00 0.00 58 1007.6
20260504211642 25 180 0.0 0.0 0.00 0.00 0.00 58 1007.7
20260504211138 25 180 0.0 0.0 0.00 0.00 0.00 58 1007.6
20260504210636 25 180 0.0 0.0 0.00 0.00 0.00 58 1007.7
20260504210132 25 180 0.0 0.0 0.00 0.00 0.00 58 1007.9
20260504205630 25 180 0.0 0.0 0.00 0.00 0.00 58 1008.0
20260504205127 25 180 0.0 0.0 0.00 0.00 0.00 58 1008.2
20260504204625 25 180 0.0 0.0 0.00 0.00 0.00 58 1007.9
20260504204124 25 180 0.0 0.0 0.00 0.00 0.00 58 1008.3
20260504203622 25 180 0.0 0.0 0.00 0.00 0.00 58 1008.4
20260504203119 24 180 0.0 0.0 0.00 0.00 0.00 58 1008.4
20260504202614 24 180 0.0 0.0 0.00 0.00 0.00 58 1008.4
20260504202111 24 180 0.0 0.0 0.00 0.00 0.00 58 1008.6
20260504201608 24 180 0.0 0.0 0.00 0.00 0.00 58 1008.7
20260504201106 24 180 0.0 0.0 0.00 0.00 0.00 58 1009.0